^^
Meteo Knjazevac Station Historical Data
Daily Summary for February 13, 2021 Units:  English    Metric   Both
Daily Weekly Monthly Yearly Custom
  High: Low: Average:
Temperature: 36.5 °F 33.2 °F 34.5 °F
Dew Point: 34.3 °F 31.8 °F 32.7 °F
Humidity: 99% 88% 93%
Wind Speed: 9mph 0mph 3.7mph
Wind Gust: 18mph - -
Wind- - WSW
Pressure: 30.19 in 30.07 in -
Precipitation: 0.00 in    
Historical Graphs
 
 
Tabular Data for February 13, 2021
Time Temperature Dew Point Pressure Wind Wind Speed Wind Gust Humidity Rainfall Rate (Hourly) solar Conditions
00:00 33.6 °F 32.3 °F 30.07 in WSW 2 mph 4 mph 95% 0.00 in 0 W/m2
00:10 33.6 °F 32.3 °F 30.07 in WSW 5 mph 6 mph 95% 0.00 in 0 W/m2
00:20 33.6 °F 32.3 °F 30.07 in WSW 3 mph 5 mph 95% 0.00 in 0 W/m2
00:30 33.6 °F 32.3 °F 30.07 in WSW 3 mph 6 mph 95% 0.00 in 0 W/m2
00:40 33.6 °F 32.3 °F 30.07 in WSW 3 mph 6 mph 95% 0.00 in 0 W/m2
00:50 33.6 °F 32.3 °F 30.07 in WSW 3 mph 6 mph 95% 0.00 in 0 W/m2
01:00 33.6 °F 32.3 °F 30.07 in WSW 3 mph 6 mph 95% 0.00 in 0 W/m2
01:10 33.6 °F 32.3 °F 30.07 in WSW 2 mph 6 mph 95% 0.00 in 0 W/m2
01:20 33.6 °F 32.3 °F 30.07 in WSW 3 mph 7 mph 95% 0.00 in 0 W/m2
01:30 33.6 °F 32.3 °F 30.07 in Calm   6 mph 95% 0.00 in 0 W/m2
01:40 33.6 °F 32.3 °F 30.07 in WSW 2 mph 3 mph 95% 0.00 in 0 W/m2
01:50 33.6 °F 32.3 °F 30.08 in WSW 2 mph 4 mph 95% 0.00 in 0 W/m2
02:00 33.6 °F 32.3 °F 30.08 in WSW 1 mph 4 mph 95% 0.00 in 0 W/m2
02:10 33.6 °F 32.3 °F 30.08 in WSW 2 mph 5 mph 95% 0.00 in 0 W/m2
02:20 33.6 °F 32.3 °F 30.08 in WSW 1 mph 5 mph 95% 0.00 in 0 W/m2
02:30 33.6 °F 32.6 °F 30.08 in WSW 3 mph 7 mph 96% 0.00 in 0 W/m2
02:40 33.6 °F 32.3 °F 30.08 in WSW 3 mph 12 mph 95% 0.00 in 0 W/m2
02:50 33.6 °F 32.3 °F 30.07 in WSW 5 mph 7 mph 95% 0.00 in 0 W/m2
03:00 33.6 °F 32.3 °F 30.07 in WSW 7 mph 12 mph 95% 0.00 in 0 W/m2
03:10 33.6 °F 32.1 °F 30.07 in WSW 6 mph 12 mph 94% 0.00 in 0 W/m2
03:20 33.6 °F 31.8 °F 30.08 in WSW 6 mph 10 mph 93% 0.00 in 0 W/m2
03:30 33.6 °F 32.1 °F 30.07 in WSW 2 mph 10 mph 94% 0.00 in 0 W/m2
03:40 33.6 °F 32.1 °F 30.07 in SW 3 mph 5 mph 94% 0.00 in 0 W/m2
03:50 33.6 °F 32.1 °F 30.07 in SW 2 mph 6 mph 94% 0.00 in 0 W/m2
04:00 33.6 °F 32.3 °F 30.08 in WSW 1 mph 3 mph 95% 0.00 in 0 W/m2
04:10 33.4 °F 32.2 °F 30.08 in WSW 2 mph 3 mph 95% 0.00 in 0 W/m2
04:20 33.6 °F 32.3 °F 30.08 in WSW 1 mph 2 mph 95% 0.00 in 0 W/m2
04:30 33.6 °F 32.3 °F 30.08 in WSW 2 mph 3 mph 95% 0.00 in 0 W/m2
04:40 33.4 °F 32.2 °F 30.09 in WSW 1 mph 4 mph 95% 0.00 in 0 W/m2
04:50 33.5 °F 32.2 °F 30.09 in WSW 1 mph 5 mph 95% 0.00 in 0 W/m2
05:00 33.4 °F 32.2 °F 30.09 in WSW 2 mph 6 mph 95% 0.00 in 0 W/m2
05:10 33.5 °F 31.9 °F 30.09 in WSW 5 mph 8 mph 94% 0.00 in 0 W/m2
05:20 33.6 °F 32.3 °F 30.09 in WSW 2 mph 5 mph 95% 0.00 in 0 W/m2
05:30 33.4 °F 32.2 °F 30.09 in WNW 1 mph 2 mph 95% 0.00 in 0 W/m2
05:40 33.4 °F 32.2 °F 30.09 in West 1 mph 3 mph 95% 0.00 in 0 W/m2
05:50 33.4 °F 32.2 °F 30.10 in WSW 2 mph 5 mph 95% 0.00 in 0 W/m2
06:00 33.4 °F 31.9 °F 30.09 in WSW 6 mph 12 mph 94% 0.00 in 0 W/m2
06:10 33.4 °F 31.9 °F 30.09 in WSW 5 mph 8 mph 94% 0.00 in 0 W/m2
06:20 33.4 °F 31.9 °F 30.10 in WSW 3 mph 7 mph 94% 0.00 in 0 W/m2
06:30 33.5 °F 31.9 °F 30.10 in WSW 6 mph 8 mph 94% 0.00 in 0 W/m2
06:40 33.4 °F 31.9 °F 30.10 in WSW 6 mph 10 mph 94% 0.00 in 0 W/m2
06:50 33.6 °F 31.8 °F 30.10 in WSW 8 mph 11 mph 93% 0.00 in 0 W/m2
07:00 33.6 °F 31.8 °F 30.10 in WSW 5 mph 9 mph 93% 0.00 in 2 W/m2
07:10 33.6 °F 32.1 °F 30.11 in WSW 3 mph 7 mph 94% 0.00 in 3 W/m2
07:20 33.6 °F 32.1 °F 30.11 in WSW 3 mph 7 mph 94% 0.00 in 7 W/m2
07:30 33.6 °F 32.1 °F 30.11 in SW 3 mph 7 mph 94% 0.00 in 7 W/m2
07:40 33.6 °F 32.1 °F 30.12 in WSW 2 mph 6 mph 94% 0.00 in 6 W/m2
07:50 33.6 °F 32.1 °F 30.12 in WSW 3 mph 5 mph 94% 0.00 in 7 W/m2
08:00 33.6 °F 32.1 °F 30.12 in WSW 3 mph 6 mph 94% 0.00 in 8 W/m2
08:10 33.6 °F 32.1 °F 30.13 in WSW 3 mph 6 mph 94% 0.00 in 9 W/m2
08:20 33.6 °F 32.1 °F 30.13 in WSW 5 mph 6 mph 94% 0.00 in 11 W/m2
08:30 33.8 °F 32.3 °F 30.13 in WSW 3 mph 6 mph 94% 0.00 in 14 W/m2
08:40 33.8 °F 32.5 °F 30.13 in WSW 3 mph 6 mph 95% 0.00 in 19 W/m2
08:50 33.8 °F 32.5 °F 30.13 in WSW 3 mph 5 mph 95% 0.00 in 21 W/m2
09:00 34 °F 32.7 °F 30.14 in WSW 5 mph 6 mph 95% 0.00 in 23 W/m2
09:10 34 °F 32.4 °F 30.13 in WSW 5 mph 8 mph 94% 0.00 in 32 W/m2
09:20 34.2 °F 32.6 °F 30.13 in WSW 5 mph 7 mph 94% 0.00 in 72 W/m2
09:30 34.3 °F 32.8 °F 30.13 in WSW 2 mph 6 mph 94% 0.00 in 64 W/m2
09:40 34.7 °F 33.4 °F 30.13 in SW 3 mph 5 mph 95% 0.00 in 83 W/m2
09:50 34.9 °F 33.3 °F 30.13 in SW 6 mph 12 mph 94% 0.00 in 76 W/m2
10:00 35.1 °F 33.5 °F 30.14 in WSW 5 mph 9 mph 94% 0.00 in 58 W/m2
10:10 35.2 °F 33.7 °F 30.14 in WSW 6 mph 8 mph 94% 0.00 in 52 W/m2
10:20 35.2 °F 33.4 °F 30.14 in WSW 7 mph 10 mph 93% 0.00 in 48 W/m2
10:30 35.2 °F 33.4 °F 30.13 in WSW 5 mph 10 mph 93% 0.00 in 63 W/m2
10:40 35.4 °F 33.6 °F 30.13 in West 7 mph 10 mph 93% 0.00 in 99 W/m2
10:50 35.6 °F 33.8 °F 30.13 in West 6 mph 12 mph 93% 0.00 in 98 W/m2
11:00 35.8 °F 33.4 °F 30.13 in WSW 8 mph 12 mph 91% 0.00 in 122 W/m2
11:10 36.1 °F 34.3 °F 30.13 in WSW 5 mph 12 mph 93% 0.00 in 124 W/m2
11:20 36.1 °F 33.8 °F 30.13 in West 2 mph 6 mph 91% 0.00 in 106 W/m2
11:30 36.3 °F 33.9 °F 30.13 in NNW 2 mph 5 mph 91% 0.00 in 90 W/m2
11:40 36.5 °F 33.8 °F 30.13 in NNE 1 mph 4 mph 90% 0.00 in 64 W/m2
11:50 36.5 °F 33.8 °F 30.13 in NNE 3 mph 5 mph 90% 0.00 in 41 W/m2
12:00 36.5 °F 33.8 °F 30.13 in NE 2 mph 6 mph 90% 0.00 in 34 W/m2
12:10 36.5 °F 34.1 °F 30.13 in NE 1 mph 6 mph 91% 0.00 in 34 W/m2
12:20 36.5 °F 34.1 °F 30.13 in North 1 mph 3 mph 91% 0.00 in 33 W/m2
12:30 36.3 °F 33.7 °F 30.13 in NNW 1 mph 4 mph 90% 0.00 in 41 W/m2
12:40 36.3 °F 33.7 °F 30.13 in Calm   5 mph 90% 0.00 in 49 W/m2
12:50 36.5 °F 33.8 °F 30.13 in WNW 2 mph 4 mph 90% 0.00 in 38 W/m2
13:00 36.3 °F 33.4 °F 30.13 in West 1 mph 6 mph 89% 0.00 in 42 W/m2
13:10 36.3 °F 33.4 °F 30.13 in West 3 mph 7 mph 89% 0.00 in 36 W/m2
13:20 36.3 °F 33.4 °F 30.13 in West 3 mph 8 mph 89% 0.00 in 39 W/m2
13:30 36.1 °F 33.2 °F 30.13 in West 5 mph 9 mph 89% 0.00 in 34 W/m2
13:40 36.1 °F 33.2 °F 30.13 in WSW 5 mph 11 mph 89% 0.00 in 29 W/m2
13:50 36.1 °F 33.2 °F 30.13 in WSW 5 mph 8 mph 89% 0.00 in 37 W/m2
14:00 36.1 °F 33.2 °F 30.13 in WSW 2 mph 8 mph 89% 0.00 in 31 W/m2
14:10 36.3 °F 33.4 °F 30.13 in WSW 3 mph 5 mph 89% 0.00 in 37 W/m2
14:20 36.3 °F 33.4 °F 30.13 in WSW 7 mph 12 mph 89% 0.00 in 43 W/m2
14:30 36.3 °F 33.1 °F 30.14 in WSW 5 mph 12 mph 88% 0.00 in 41 W/m2
14:40 36.1 °F 33.2 °F 30.14 in WSW 6 mph 8 mph 89% 0.00 in 28 W/m2
14:50 36.1 °F 33.2 °F 30.14 in WSW 6 mph 9 mph 89% 0.00 in 26 W/m2
15:00 36.1 °F 33.2 °F 30.14 in WSW 8 mph 13 mph 89% 0.00 in 29 W/m2
15:10 36 °F 33 °F 30.14 in WSW 5 mph 12 mph 89% 0.00 in 18 W/m2
15:20 35.8 °F 32.9 °F 30.14 in WSW 6 mph 11 mph 89% 0.00 in 10 W/m2
15:30 35.6 °F 32.7 °F 30.14 in WSW 5 mph 8 mph 89% 0.00 in 7 W/m2
15:40 35.4 °F 32.5 °F 30.14 in WSW 6 mph 10 mph 89% 0.00 in 5 W/m2
15:50 35.4 °F 32.5 °F 30.14 in WSW 7 mph 12 mph 89% 0.00 in 2 W/m2
16:00 35.4 °F 32.5 °F 30.14 in WSW 8 mph 14 mph 89% 0.00 in 0 W/m2
16:10 35.4 °F 32.5 °F 30.15 in SW 8 mph 16 mph 89% 0.00 in 0 W/m2
16:20 35.4 °F 32.5 °F 30.15 in WSW 7 mph 14 mph 89% 0.00 in 0 W/m2
16:30 35.4 °F 32.5 °F 30.15 in WSW 7 mph 12 mph 89% 0.00 in 0 W/m2
16:40 35.4 °F 32.5 °F 30.15 in SW 2 mph 8 mph 89% 0.00 in 0 W/m2
16:50 35.2 °F 32.6 °F 30.15 in WSW 3 mph 9 mph 90% 0.00 in 0 W/m2
17:00 35.2 °F 32.6 °F 30.15 in WSW 5 mph 8 mph 90% 0.00 in 0 W/m2
17:10 35.2 °F 32.6 °F 30.15 in WSW 5 mph 8 mph 90% 0.00 in 0 W/m2
17:30 35.2 °F 32.6 °F 30.16 in SW 3 mph 8 mph 90% 0.00 in 0 W/m2
17:40 35.2 °F 32.6 °F 30.16 in SW 3 mph 10 mph 90% 0.00 in 0 W/m2
17:50 35.1 °F 32.4 °F 30.16 in WSW 3 mph 8 mph 90% 0.00 in 0 W/m2
18:00 35.1 °F 32.4 °F 30.16 in WSW 7 mph 12 mph 90% 0.00 in 0 W/m2
18:10 35.1 °F 32.4 °F 30.16 in SW 8 mph 18 mph 90% 0.00 in 0 W/m2
18:20 35.2 °F 32.6 °F 30.17 in SW 5 mph 18 mph 90% 0.00 in 0 W/m2
18:30 35.2 °F 32.6 °F 30.17 in SW 5 mph 10 mph 90% 0.00 in 0 W/m2
18:40 35.2 °F 32.6 °F 30.17 in SW 3 mph 8 mph 90% 0.00 in 0 W/m2
18:50 35.2 °F 32.6 °F 30.17 in SW 3 mph 7 mph 90% 0.00 in 0 W/m2
19:00 35.1 °F 32.4 °F 30.17 in SSW 5 mph 6 mph 90% 0.00 in 0 W/m2
19:10 35.1 °F 32.7 °F 30.17 in SW 3 mph 6 mph 91% 0.00 in 0 W/m2
19:20 35.1 °F 32.4 °F 30.17 in WSW 6 mph 9 mph 90% 0.00 in 0 W/m2
19:30 35.1 °F 32.4 °F 30.17 in SW 7 mph 9 mph 90% 0.00 in 0 W/m2
19:40 35 °F 32.4 °F 30.17 in WSW 7 mph 9 mph 90% 0.00 in 0 W/m2
19:50 34.9 °F 32.2 °F 30.17 in WSW 7 mph 9 mph 90% 0.00 in 0 W/m2
20:00 34.9 °F 32.5 °F 30.18 in SW 6 mph 15 mph 91% 0.00 in 0 W/m2
20:10 34.7 °F 32.3 °F 30.18 in SW 9 mph 14 mph 91% 0.00 in 0 W/m2
20:20 34.7 °F 32.9 °F 30.18 in SW 3 mph 16 mph 93% 0.00 in 0 W/m2
20:30 34.5 °F 33 °F 30.18 in SW 3 mph 7 mph 94% 0.00 in 0 W/m2
20:40 34.3 °F 32.8 °F 30.18 in SW 3 mph 8 mph 94% 0.00 in 0 W/m2
20:50 34.2 °F 32.9 °F 30.19 in SW 5 mph 10 mph 95% 0.00 in 0 W/m2
21:00 34 °F 32.9 °F 30.18 in SW 3 mph 10 mph 96% 0.00 in 0 W/m2
21:10 33.8 °F 32.8 °F 30.19 in SW 3 mph 8 mph 96% 0.00 in 0 W/m2
21:20 33.6 °F 32.6 °F 30.19 in SW 3 mph 7 mph 96% 0.00 in 0 W/m2
21:30 33.6 °F 33.1 °F 30.19 in WSW 5 mph 8 mph 98% 0.00 in 0 W/m2
21:40 33.4 °F 32.9 °F 30.19 in SW 2 mph 6 mph 98% 0.00 in 0 W/m2
21:50 33.4 °F 32.9 °F 30.19 in SW 2 mph 5 mph 98% 0.00 in 0 W/m2
22:00 33.4 °F 33.2 °F 30.19 in WSW 2 mph 5 mph 99% 0.00 in 0 W/m2
22:10 33.4 °F 33.2 °F 30.19 in South 2 mph 5 mph 99% 0.00 in 0 W/m2
22:20 33.4 °F 33.2 °F 30.19 in SW 1 mph 4 mph 99% 0.00 in 0 W/m2
22:30 33.4 °F 33.2 °F 30.19 in SSW 1 mph 3 mph 99% 0.00 in 0 W/m2
22:40 33.4 °F 33.2 °F 30.19 in Calm   4 mph 99% 0.00 in 0 W/m2
22:50 33.3 °F 33 °F 30.19 in Calm   2 mph 99% 0.00 in 0 W/m2
23:00 33.3 °F 33 °F 30.19 in WSW 1 mph 2 mph 99% 0.00 in 0 W/m2
23:10 33.3 °F 33 °F 30.19 in WSW 1 mph 2 mph 99% 0.00 in 0 W/m2
23:20 33.3 °F 33 °F 30.19 in SW 1 mph 2 mph 99% 0.00 in 0 W/m2
23:30 33.3 °F 33 °F 30.18 in South 1 mph 4 mph 99% 0.00 in 0 W/m2
23:40 33.2 °F 33 °F 30.18 in West 1 mph 2 mph 99% 0.00 in 0 W/m2
23:50 33.2 °F 33 °F 30.18 in WSW 1 mph 2 mph 99% 0.00 in 0 W/m2
Knjazevac, Serbia
Compliments of Weather Underground - 2 mb